START_TIME,STEP,MOV.,M15,t_acc.,M20,t_acc.
1979-03-02 03:00:33.370 ,5,1,0.,24.0,0.,24.0
1979-03-02 03:00:57.370 ,6,1,1.,24.0,0.,24.0
1979-03-02 03:01:21.370 ,7,1,0.,24.0,0.,24.0
1979-03-02 03:01:45.370 ,7,1,0.,24.0,0.,24.0
1979-03-02 03:02:09.370 ,6,1,0.,24.0,0.,24.0
1979-03-02 03:02:33.370 ,5,1,0.,24.0,0.,24.0
1979-03-02 03:02:57.370 ,4,1,0.,24.0,0.,24.0
1979-03-02 03:03:21.370 ,3,1,0.,24.0,0.,24.0
1979-03-02 03:03:45.370 ,2,1,0.,24.0,0.,24.0
1979-03-02 03:04:09.370 ,1,1,1.,24.0,0.,24.0
1979-03-02 03:04:33.370 ,0,1,0.,24.0,0.,24.0
1979-03-02 03:04:57.370 ,0,1,0.,24.0,0.,24.0
1979-03-02 03:05:21.360 ,1,1,0.,24.0,0.,24.0
1979-03-02 03:05:45.370 ,2,1,0.,24.0,0.,24.0
1979-03-02 03:06:09.360 ,3,1,0.,24.0,0.,24.0
1979-03-02 03:06:33.370 ,4,1,0.,24.0,0.,24.0
1979-03-02 03:06:57.370 ,5,1,0.,24.0,0.,24.0
1979-03-02 03:07:21.360 ,6,1,0.,24.0,0.,24.0
1979-03-02 03:07:45.370 ,7,1,0.,24.0,0.,24.0
1979-03-02 03:08:09.360 ,7,1,0.,24.0,0.,24.0
1979-03-02 03:08:33.360 ,6,1,0.,24.0,0.,24.0
1979-03-02 03:08:57.370 ,5,1,0.,24.0,0.,24.0
1979-03-02 03:09:21.370 ,4,1,0.,24.0,0.,24.0
1979-03-02 03:09:45.370 ,3,1,0.,24.0,0.,24.0
1979-03-02 03:10:09.370 ,2,1,0.,24.0,0.,24.0
1979-03-02 03:10:33.370 ,1,1,0.,24.0,0.,24.0
1979-03-02 03:10:57.370 ,0,1,0.,24.0,0.,24.0
1979-03-02 03:11:21.370 ,0,1,0.,24.0,0.,24.0
1979-03-02 03:11:45.370 ,1,1,0.,24.0,0.,24.0
1979-03-02 03:12:09.370 ,2,1,0.,24.0,0.,24.0
1979-03-02 03:12:33.370 ,3,1,0.,24.0,0.,24.0
1979-03-02 03:12:57.370 ,4,1,0.,24.0,0.,24.0
1979-03-02 03:13:21.370 ,5,1,0.,24.0,0.,24.0
1979-03-02 03:13:45.370 ,6,1,0.,24.0,0.,24.0
1979-03-02 03:14:09.370 ,7,1,0.,24.0,0.,24.0
1979-03-02 03:14:33.370 ,7,1,0.,24.0,0.,24.0
1979-03-02 03:14:57.370 ,6,1,0.,24.0,0.,24.0
1979-03-02 03:15:21.370 ,5,1,0.,24.0,0.,24.0
1979-03-02 03:15:45.370 ,4,1,0.,24.0,0.,24.0
1979-03-02 03:16:09.370 ,3,1,0.,24.0,0.,24.0
1979-03-02 03:16:33.370 ,2,1,0.,24.0,0.,24.0
1979-03-02 03:16:57.370 ,1,1,0.,24.0,0.,24.0
1979-03-02 03:17:21.360 ,0,1,0.,24.0,0.,24.0
1979-03-02 03:17:45.360 ,0,1,0.,24.0,0.,24.0
1979-03-02 03:18:09.360 ,1,1,0.,24.0,0.,24.0
1979-03-02 03:18:33.360 ,2,1,0.,24.0,0.,24.0
1979-03-02 03:18:57.360 ,3,1,0.,24.0,0.,24.0
1979-03-02 03:19:21.360 ,4,1,0.,24.0,0.,24.0
1979-03-02 03:19:45.360 ,5,1,0.,24.0,0.,24.0
1979-03-02 03:20:09.360 ,6,1,0.,24.0,0.,24.0
1979-03-02 03:20:33.360 ,7,1,0.,24.0,0.,24.0
1979-03-02 03:20:57.360 ,7,1,0.,24.0,0.,24.0
1979-03-02 03:21:21.360 ,6,1,0.,24.0,0.,24.0
1979-03-02 03:21:45.360 ,5,1,0.,24.0,0.,24.0
1979-03-02 03:22:09.360 ,4,1,0.,24.0,0.,24.0
1979-03-02 03:22:33.360 ,3,1,0.,24.0,0.,24.0
1979-03-02 03:22:57.360 ,2,1,0.,24.0,0.,24.0
1979-03-02 03:23:21.370 ,1,1,0.,24.0,0.,24.0
1979-03-02 03:23:45.370 ,0,1,0.,24.0,0.,24.0
1979-03-02 03:24:09.370 ,0,1,0.,24.0,0.,24.0
1979-03-02 03:24:33.370 ,1,1,0.,24.0,0.,24.0
1979-03-02 03:24:57.370 ,2,1,0.,24.0,0.,24.0
1979-03-02 03:25:21.370 ,3,1,0.,24.0,0.,24.0
1979-03-02 03:25:45.370 ,4,1,0.,24.0,0.,24.0
1979-03-02 03:26:09.370 ,5,1,0.,24.0,0.,24.0
1979-03-02 03:26:33.370 ,6,1,0.,24.0,0.,24.0
1979-03-02 03:26:57.370 ,7,1,0.,24.0,0.,24.0
1979-03-02 03:27:21.370 ,7,1,0.,24.0,0.,24.0
1979-03-02 03:27:45.370 ,6,1,0.,24.0,0.,24.0
1979-03-02 03:28:09.370 ,5,1,0.,24.0,0.,24.0
1979-03-02 03:28:33.370 ,4,1,0.,24.0,0.,24.0
1979-03-02 03:28:57.370 ,3,1,0.,24.0,0.,24.0
1979-03-02 03:29:21.370 ,2,1,0.,24.0,0.,24.0
1979-03-02 03:29:45.370 ,1,1,0.,24.0,0.,24.0
1979-03-02 03:30:09.370 ,0,1,0.,24.0,0.,24.0
1979-03-02 03:30:33.370 ,0,1,0.,24.0,0.,24.0
1979-03-02 03:30:57.370 ,1,1,0.,24.0,0.,24.0
1979-03-02 03:31:21.370 ,2,1,0.,24.0,0.,24.0
1979-03-02 03:31:45.370 ,3,1,0.,24.0,0.,24.0
1979-03-02 03:32:09.370 ,4,1,0.,24.0,0.,24.0
1979-03-02 03:32:33.370 ,5,1,0.,24.0,0.,24.0
1979-03-02 03:32:57.370 ,6,1,0.,24.0,0.,24.0
1979-03-02 03:33:21.370 ,7,1,0.,24.0,0.,24.0
1979-03-02 03:33:45.370 ,7,1,0.,24.0,0.,24.0
1979-03-02 03:34:09.370 ,6,1,0.,24.0,0.,24.0
1979-03-02 03:34:33.370 ,5,1,0.,24.0,0.,24.0
1979-03-02 03:34:57.370 ,4,1,0.,24.0,0.,24.0
1979-03-02 03:35:21.370 ,3,1,0.,24.0,0.,24.0
1979-03-02 03:35:45.370 ,2,1,0.,24.0,0.,24.0
1979-03-02 03:36:09.370 ,1,1,0.,24.0,0.,24.0
1979-03-02 03:36:33.370 ,0,1,0.,24.0,0.,24.0
1979-03-02 03:36:57.370 ,0,1,0.,24.0,0.,24.0
1979-03-02 03:37:21.370 ,1,1,0.,24.0,0.,24.0
1979-03-02 03:37:45.370 ,2,1,0.,24.0,0.,24.0
1979-03-02 03:38:09.370 ,3,1,0.,24.0,0.,24.0
1979-03-02 03:38:33.370 ,4,1,0.,24.0,0.,24.0
1979-03-02 03:38:57.370 ,5,1,0.,24.0,0.,24.0
1979-03-02 03:39:21.370 ,6,1,0.,24.0,0.,24.0
1979-03-02 03:39:45.370 ,0,0,0.,24.0,0.,24.0
1979-03-02 03:40:09.370 ,7,1,0.,24.0,0.,24.0
1979-03-02 03:40:33.370 ,6,1,0.,24.0,0.,24.0
1979-03-02 03:40:57.370 ,5,1,0.,24.0,0.,24.0
1979-03-02 03:41:21.370 ,4,1,0.,24.0,0.,24.0
1979-03-02 03:41:45.370 ,3,1,0.,24.0,0.,24.0
1979-03-02 03:42:09.370 ,2,1,0.,24.0,0.,24.0
1979-03-02 03:42:33.370 ,1,1,0.,24.0,0.,24.0
1979-03-02 03:42:57.370 ,0,1,0.,24.0,0.,24.0
1979-03-02 03:43:21.370 ,0,1,0.,24.0,0.,24.0
1979-03-02 03:43:45.370 ,1,1,0.,24.0,0.,24.0
1979-03-02 03:44:09.370 ,2,1,0.,24.0,0.,24.0
1979-03-02 03:44:33.370 ,3,1,0.,24.0,0.,24.0
1979-03-02 03:44:57.370 ,4,1,0.,24.0,0.,24.0
1979-03-02 03:45:21.370 ,5,1,0.,24.0,0.,24.0
1979-03-02 03:45:45.370 ,6,1,0.,24.0,0.,24.0
1979-03-02 03:46:09.370 ,7,1,0.,24.0,0.,24.0
1979-03-02 03:46:33.370 ,7,1,0.,24.0,0.,24.0
1979-03-02 03:46:57.370 ,6,1,0.,24.0,0.,24.0
1979-03-02 03:47:21.370 ,5,1,0.,24.0,0.,24.0
1979-03-02 03:47:45.370 ,4,1,0.,24.0,0.,24.0
1979-03-02 03:48:09.370 ,3,1,0.,24.0,0.,24.0
1979-03-02 03:48:33.370 ,2,1,0.,24.0,0.,24.0
1979-03-02 03:48:57.370 ,1,1,0.,24.0,0.,24.0
1979-03-02 03:49:21.370 ,0,1,0.,24.0,0.,24.0
1979-03-02 03:49:45.370 ,0,1,0.,24.0,0.,24.0
1979-03-02 03:50:09.370 ,1,1,0.,24.0,0.,24.0
1979-03-02 03:50:33.370 ,2,1,0.,24.0,0.,24.0
1979-03-02 03:50:57.370 ,3,1,0.,24.0,0.,24.0
1979-03-02 03:51:21.370 ,4,1,0.,24.0,0.,24.0
1979-03-02 03:51:45.370 ,5,1,0.,24.0,0.,24.0
1979-03-02 03:52:09.370 ,6,1,0.,24.0,0.,24.0
1979-03-02 03:52:33.370 ,7,1,0.,24.0,0.,24.0
1979-03-02 03:52:57.370 ,7,1,0.,24.0,0.,24.0
1979-03-02 03:53:21.370 ,6,1,0.,24.0,0.,24.0
1979-03-02 03:53:45.370 ,5,1,0.,24.0,0.,24.0
1979-03-02 03:54:09.370 ,4,1,0.,24.0,0.,24.0
1979-03-02 03:54:33.370 ,3,1,0.,24.0,0.,24.0
1979-03-02 03:54:57.370 ,2,1,0.,24.0,0.,24.0
1979-03-02 03:55:21.370 ,1,1,0.,24.0,0.,24.0
1979-03-02 03:55:45.370 ,0,1,0.,24.0,0.,24.0
1979-03-02 03:56:09.370 ,0,1,0.,24.0,0.,24.0
1979-03-02 03:56:33.370 ,1,1,0.,24.0,0.,24.0
1979-03-02 03:56:57.370 ,2,1,0.,24.0,0.,24.0
1979-03-02 03:57:21.370 ,3,1,0.,24.0,0.,24.0
1979-03-02 03:57:45.370 ,4,1,0.,24.0,0.,24.0
1979-03-02 03:58:09.370 ,5,1,0.,24.0,0.,24.0
1979-03-02 03:58:33.370 ,6,1,0.,24.0,0.,24.0
1979-03-02 03:58:57.370 ,7,1,0.,24.0,0.,24.0
1979-03-02 03:59:21.370 ,7,1,0.,24.0,0.,24.0
1979-03-02 03:59:45.370 ,6,1,0.,24.0,0.,24.0
1979-03-02 04:00:09.370 ,5,1,0.,24.0,0.,24.0
1979-03-02 04:00:33.370 ,4,1,0.,24.0,0.,24.0
1979-03-02 04:00:57.370 ,3,1,0.,24.0,0.,24.0
1979-03-02 04:01:21.370 ,2,1,0.,24.0,0.,24.0
1979-03-02 04:01:45.370 ,1,1,0.,24.0,0.,24.0
1979-03-02 04:02:09.370 ,0,1,0.,24.0,0.,24.0
1979-03-02 04:02:33.370 ,0,1,0.,24.0,0.,24.0
1979-03-02 04:02:57.370 ,1,1,0.,24.0,0.,24.0
1979-03-02 04:03:21.370 ,2,1,0.,24.0,0.,24.0
1979-03-02 04:03:45.370 ,3,1,0.,24.0,0.,24.0
1979-03-02 04:04:09.370 ,4,1,0.,24.0,0.,24.0
1979-03-02 04:04:33.370 ,5,1,0.,24.0,0.,24.0
1979-03-02 04:04:57.370 ,6,1,0.,24.0,0.,24.0
1979-03-02 04:05:21.370 ,7,1,0.,24.0,0.,24.0
1979-03-02 04:05:45.370 ,7,1,0.,24.0,0.,24.0
1979-03-02 04:06:09.370 ,6,1,0.,24.0,0.,24.0
1979-03-02 04:06:33.370 ,5,1,0.,24.0,0.,24.0
1979-03-02 04:06:57.370 ,4,1,0.,24.0,0.,24.0
1979-03-02 04:07:21.370 ,3,1,0.,24.0,0.,24.0
1979-03-02 04:07:45.370 ,2,1,0.,24.0,0.,24.0
1979-03-02 04:08:09.370 ,1,1,0.,24.0,0.,24.0
1979-03-02 04:08:33.370 ,0,1,0.,24.0,0.,24.0
1979-03-02 04:08:57.370 ,0,1,0.,24.0,0.,24.0
1979-03-02 04:09:21.370 ,1,1,0.,24.0,0.,24.0
1979-03-02 04:09:45.370 ,2,1,0.,24.0,0.,24.0
1979-03-02 04:10:09.370 ,3,1,0.,24.0,0.,24.0
1979-03-02 04:10:33.370 ,4,1,0.,24.0,0.,24.0
1979-03-02 04:10:57.370 ,5,1,0.,24.0,0.,24.0
1979-03-02 04:11:21.370 ,6,1,0.,24.0,0.,24.0
1979-03-02 04:11:45.370 ,7,1,0.,24.0,0.,24.0
1979-03-02 04:12:09.370 ,7,1,0.,24.0,0.,24.0
1979-03-02 04:12:33.370 ,6,1,0.,24.0,0.,24.0
1979-03-02 04:12:57.370 ,5,1,0.,24.0,0.,24.0
1979-03-02 04:13:21.370 ,4,1,0.,24.0,0.,24.0
1979-03-02 04:13:45.370 ,3,1,0.,24.0,0.,24.0
1979-03-02 04:14:09.370 ,2,1,0.,24.0,0.,24.0
1979-03-02 04:14:33.370 ,1,1,0.,24.0,0.,24.0
1979-03-02 04:14:57.370 ,0,1,0.,24.0,0.,24.0
1979-03-02 04:15:21.370 ,0,1,0.,24.0,0.,24.0
1979-03-02 04:15:45.370 ,1,1,0.,24.0,0.,24.0
1979-03-02 04:16:09.370 ,2,1,0.,24.0,0.,24.0
1979-03-02 04:16:33.370 ,3,1,0.,24.0,0.,24.0
1979-03-02 04:16:57.370 ,4,1,0.,24.0,0.,24.0
1979-03-02 04:17:21.370 ,5,1,0.,24.0,0.,24.0
1979-03-02 04:17:45.370 ,6,1,0.,24.0,0.,24.0
1979-03-02 04:18:09.370 ,7,1,0.,24.0,0.,24.0
1979-03-02 04:18:33.370 ,7,1,0.,24.0,0.,24.0
1979-03-02 04:18:57.370 ,6,1,0.,24.0,0.,24.0
1979-03-02 04:19:21.370 ,5,1,0.,24.0,0.,24.0
1979-03-02 04:19:45.370 ,4,1,0.,24.0,0.,24.0
1979-03-02 04:20:09.370 ,3,1,0.,24.0,0.,24.0
1979-03-02 04:20:33.370 ,2,1,0.,24.0,0.,24.0
1979-03-02 04:20:57.370 ,1,1,0.,24.0,0.,24.0
1979-03-02 04:21:21.370 ,0,1,0.,24.0,0.,24.0
1979-03-02 04:21:45.370 ,0,1,1.,24.0,0.,24.0
1979-03-02 04:22:09.370 ,1,1,0.,24.0,0.,24.0
1979-03-02 04:22:33.370 ,2,1,0.,24.0,0.,24.0
1979-03-02 04:22:57.370 ,3,1,0.,24.0,0.,24.0
1979-03-02 04:23:21.370 ,4,1,0.,24.0,0.,24.0
1979-03-02 04:23:45.370 ,5,1,0.,24.0,0.,24.0
1979-03-02 04:24:09.370 ,6,1,0.,24.0,0.,24.0
1979-03-02 04:24:33.370 ,7,1,0.,24.0,0.,24.0
1979-03-02 04:24:57.370 ,7,1,0.,24.0,0.,24.0
1979-03-02 04:25:21.370 ,6,1,0.,24.0,0.,24.0
1979-03-02 04:25:45.370 ,5,1,0.,24.0,0.,24.0
1979-03-02 04:26:09.370 ,4,1,0.,24.0,0.,24.0
1979-03-02 04:26:33.370 ,3,1,0.,24.0,0.,24.0
1979-03-02 04:26:57.370 ,2,1,0.,24.0,0.,24.0
1979-03-02 04:27:21.370 ,1,1,0.,24.0,0.,24.0
1979-03-02 04:27:45.370 ,0,1,0.,24.0,0.,24.0
1979-03-02 04:28:09.370 ,0,1,0.,24.0,0.,24.0
1979-03-02 04:28:33.370 ,1,1,0.,24.0,0.,24.0
1979-03-02 04:28:57.370 ,2,1,0.,24.0,0.,24.0
1979-03-02 04:29:21.370 ,3,1,0.,24.0,0.,24.0
1979-03-02 04:29:45.370 ,4,1,0.,24.0,0.,24.0
1979-03-02 04:30:09.370 ,5,1,0.,24.0,0.,24.0
1979-03-02 04:30:33.370 ,6,1,0.,24.0,0.,24.0
1979-03-02 04:30:57.370 ,0,0,,0,,0
1979-03-02 04:31:21.370 ,7,1,0.,24.0,0.,24.0
1979-03-02 04:31:45.370 ,6,1,0.,24.0,0.,24.0
1979-03-02 04:32:09.370 ,5,1,0.,24.0,0.,24.0
1979-03-02 04:32:33.370 ,4,1,0.,24.0,0.,24.0
1979-03-02 04:33:45.370 ,0,0,0.,24.0,0.,24.0
1979-03-02 04:34:09.370 ,0,1,0.,24.0,0.,24.0
1979-03-02 04:34:33.370 ,0,1,0.,24.0,0.,24.0
1979-03-02 04:34:57.370 ,1,1,0.,24.0,0.,24.0
1979-03-02 04:35:21.370 ,2,1,0.,24.0,0.,24.0
1979-03-02 04:35:45.370 ,3,1,0.,24.0,0.,24.0
1979-03-02 04:36:09.370 ,4,1,0.,24.0,0.,24.0
1979-03-02 04:36:33.370 ,5,1,0.,24.0,0.,24.0
1979-03-02 04:36:57.370 ,6,1,0.,24.0,0.,24.0
1979-03-02 04:37:21.370 ,7,1,0.,24.0,0.,24.0
1979-03-02 04:37:45.370 ,7,1,0.,24.0,0.,24.0
1979-03-02 04:38:09.370 ,6,1,0.,24.0,0.,24.0
1979-03-02 04:38:33.370 ,5,1,0.,24.0,0.,24.0
1979-03-02 04:38:57.370 ,4,1,0.,24.0,0.,24.0
1979-03-02 04:39:21.370 ,3,1,0.,24.0,0.,24.0
1979-03-02 04:39:45.370 ,2,1,0.,24.0,0.,24.0
1979-03-02 04:40:09.370 ,1,1,0.,24.0,0.,24.0
1979-03-02 04:40:33.370 ,0,1,0.,24.0,0.,24.0
1979-03-02 04:40:57.370 ,0,1,0.,24.0,0.,24.0
1979-03-02 04:41:21.370 ,1,1,0.,24.0,0.,24.0
1979-03-02 04:41:45.370 ,2,1,0.,24.0,0.,24.0
1979-03-02 04:42:09.370 ,3,1,0.,24.0,0.,24.0
1979-03-02 04:42:33.370 ,4,1,0.,24.0,0.,24.0
1979-03-02 04:42:57.370 ,5,1,0.,24.0,0.,24.0
1979-03-02 04:43:21.370 ,6,1,0.,24.0,0.,24.0
1979-03-02 04:43:45.370 ,7,1,0.,24.0,0.,24.0
1979-03-02 04:44:09.370 ,7,1,0.,24.0,0.,24.0
1979-03-02 04:44:33.370 ,6,1,0.,24.0,0.,24.0
1979-03-02 04:44:57.370 ,5,1,0.,24.0,0.,24.0
1979-03-02 04:45:21.370 ,4,1,0.,24.0,0.,24.0
1979-03-02 04:45:45.370 ,3,1,0.,24.0,0.,24.0
1979-03-02 04:46:09.370 ,2,1,0.,24.0,0.,24.0
1979-03-02 04:46:33.370 ,1,1,0.,24.0,0.,24.0
1979-03-02 04:46:57.370 ,0,1,0.,24.0,0.,24.0
1979-03-02 04:47:21.370 ,0,1,0.,24.0,0.,24.0
1979-03-02 04:47:45.370 ,1,1,0.,24.0,0.,24.0
1979-03-02 04:48:09.370 ,2,1,0.,24.0,0.,24.0
1979-03-02 04:48:33.370 ,3,1,0.,24.0,0.,24.0
1979-03-02 04:48:57.370 ,4,1,0.,24.0,0.,24.0
1979-03-02 04:49:21.370 ,5,1,0.,24.0,0.,24.0
1979-03-02 04:49:45.370 ,6,1,0.,24.0,0.,24.0
1979-03-02 04:50:09.370 ,7,1,0.,24.0,0.,24.0
1979-03-02 04:50:33.370 ,7,1,0.,24.0,0.,24.0
1979-03-02 04:50:57.370 ,6,1,0.,24.0,0.,24.0
1979-03-02 04:51:21.370 ,5,1,0.,24.0,0.,24.0
1979-03-02 04:51:45.370 ,4,1,0.,24.0,0.,24.0
1979-03-02 04:52:09.370 ,3,1,0.,24.0,0.,24.0
1979-03-02 04:52:33.370 ,2,1,0.,24.0,0.,24.0
1979-03-02 04:52:57.370 ,1,1,0.,24.0,0.,24.0
1979-03-02 04:53:21.370 ,0,1,0.,24.0,0.,24.0
1979-03-02 04:53:45.370 ,0,1,0.,24.0,0.,24.0
1979-03-02 04:54:09.370 ,1,1,0.,24.0,0.,24.0
1979-03-02 04:54:33.370 ,2,1,0.,24.0,0.,24.0
1979-03-02 04:54:57.370 ,3,1,0.,24.0,0.,24.0
1979-03-02 04:55:21.370 ,4,1,0.,24.0,0.,24.0
1979-03-02 04:55:45.370 ,5,1,0.,24.0,0.,24.0
1979-03-02 04:56:09.370 ,6,1,0.,24.0,0.,24.0
1979-03-02 04:56:33.370 ,7,1,0.,24.0,0.,24.0
1979-03-02 04:56:57.370 ,7,1,0.,24.0,0.,24.0
1979-03-02 04:57:21.370 ,6,1,0.,24.0,0.,24.0
1979-03-02 04:57:45.370 ,5,1,0.,24.0,0.,24.0
1979-03-02 04:58:09.370 ,4,1,0.,24.0,0.,24.0
1979-03-02 04:58:33.370 ,3,1,0.,24.0,0.,24.0
1979-03-02 04:58:57.370 ,2,1,0.,24.0,0.,24.0
1979-03-02 04:59:21.370 ,1,1,0.,24.0,0.,24.0
1979-03-02 04:59:45.370 ,0,1,0.,24.0,0.,24.0
1979-03-02 05:00:09.370 ,0,1,0.,24.0,0.,24.0
1979-03-02 05:00:33.370 ,1,1,0.,24.0,0.,24.0
1979-03-02 05:00:57.370 ,2,1,0.,24.0,0.,24.0
1979-03-02 05:01:21.370 ,3,1,0.,24.0,0.,24.0
1979-03-02 05:01:45.370 ,4,1,0.,24.0,0.,24.0
1979-03-02 05:02:09.370 ,5,1,0.,24.0,0.,24.0
1979-03-02 05:02:33.370 ,6,1,0.,24.0,0.,24.0
1979-03-02 05:02:57.370 ,7,1,0.,24.0,0.,24.0
1979-03-02 05:03:21.370 ,7,1,0.,24.0,0.,24.0
1979-03-02 05:03:45.370 ,6,1,0.,24.0,0.,24.0
1979-03-02 05:04:09.370 ,5,1,0.,24.0,0.,24.0
1979-03-02 05:04:33.370 ,4,1,0.,24.0,0.,24.0
1979-03-02 05:04:57.370 ,3,1,0.,24.0,0.,24.0
1979-03-02 05:05:21.370 ,2,1,1.,24.0,0.,24.0
1979-03-02 05:05:45.370 ,1,1,0.,24.0,0.,24.0
1979-03-02 05:06:09.370 ,0,1,0.,24.0,0.,24.0
1979-03-02 05:06:33.370 ,0,1,0.,24.0,0.,24.0
1979-03-02 05:06:57.370 ,1,1,0.,24.0,0.,24.0
1979-03-02 05:07:21.370 ,2,1,0.,24.0,0.,24.0
1979-03-02 05:07:45.370 ,3,1,0.,24.0,0.,24.0
1979-03-02 05:08:09.370 ,4,1,0.,24.0,0.,24.0
1979-03-02 05:08:33.370 ,5,1,0.,24.0,0.,24.0
1979-03-02 05:08:57.370 ,6,1,0.,24.0,0.,24.0
1979-03-02 05:09:21.370 ,7,1,0.,24.0,0.,24.0
1979-03-02 05:09:45.370 ,7,1,0.,24.0,0.,24.0
1979-03-02 05:10:09.370 ,6,1,0.,24.0,0.,24.0
1979-03-02 05:10:33.370 ,5,1,0.,24.0,0.,24.0
1979-03-02 05:10:57.370 ,4,1,0.,24.0,0.,24.0
1979-03-02 05:11:21.370 ,3,1,0.,24.0,0.,24.0
1979-03-02 05:11:45.370 ,2,1,0.,24.0,0.,24.0
1979-03-02 05:12:09.370 ,1,1,0.,24.0,0.,24.0
1979-03-02 05:12:33.370 ,0,1,0.,24.0,0.,24.0
1979-03-02 05:12:57.370 ,0,1,0.,24.0,0.,24.0
1979-03-02 05:13:21.370 ,1,1,0.,24.0,0.,24.0
1979-03-02 05:13:45.370 ,2,1,0.,24.0,0.,24.0
1979-03-02 05:14:09.370 ,3,1,0.,24.0,0.,24.0
1979-03-02 05:14:33.370 ,4,1,0.,24.0,0.,24.0
1979-03-02 05:14:57.370 ,5,1,0.,24.0,0.,24.0
1979-03-02 05:15:21.370 ,6,1,0.,24.0,0.,24.0
1979-03-02 05:15:45.370 ,7,1,0.,24.0,0.,24.0
1979-03-02 05:16:09.370 ,7,1,0.,24.0,0.,24.0
1979-03-02 05:16:33.370 ,6,1,0.,24.0,0.,24.0
1979-03-02 05:16:57.370 ,5,1,0.,24.0,0.,24.0
1979-03-02 05:17:21.370 ,4,1,0.,24.0,0.,24.0
1979-03-02 05:17:45.370 ,3,1,0.,24.0,0.,24.0
1979-03-02 05:18:09.370 ,2,1,0.,24.0,0.,24.0
1979-03-02 05:18:33.370 ,1,1,0.,24.0,0.,24.0
1979-03-02 05:18:57.370 ,0,1,0.,24.0,0.,24.0
1979-03-02 05:19:21.370 ,0,1,0.,24.0,0.,24.0
1979-03-02 05:19:45.370 ,1,1,0.,24.0,0.,24.0
1979-03-02 05:20:09.370 ,2,1,1.,24.0,0.,24.0
1979-03-02 05:20:33.370 ,3,1,0.,24.0,0.,24.0
1979-03-02 05:20:57.370 ,4,1,0.,24.0,0.,24.0
1979-03-02 05:21:21.370 ,5,1,0.,24.0,0.,24.0
1979-03-02 05:21:45.370 ,6,1,0.,24.0,0.,24.0
1979-03-02 05:22:09.370 ,7,1,0.,24.0,0.,24.0
1979-03-02 05:22:33.370 ,7,1,0.,24.0,0.,24.0
1979-03-02 05:22:57.370 ,6,1,0.,24.0,0.,24.0
1979-03-02 05:23:21.370 ,5,1,0.,24.0,0.,24.0
1979-03-02 05:23:45.370 ,4,1,0.,24.0,0.,24.0
1979-03-02 05:24:09.370 ,3,1,0.,24.0,0.,24.0
1979-03-02 05:24:33.370 ,2,1,0.,24.0,0.,24.0
1979-03-02 05:24:57.370 ,1,1,0.,24.0,0.,24.0
1979-03-02 05:25:21.370 ,0,1,0.,24.0,0.,24.0
1979-03-02 05:25:45.370 ,0,1,0.,24.0,0.,24.0
1979-03-02 05:26:09.370 ,1,1,0.,24.0,0.,24.0
1979-03-02 05:26:33.370 ,2,1,0.,24.0,0.,24.0
1979-03-02 05:26:57.370 ,3,1,0.,24.0,0.,24.0
1979-03-02 05:27:21.370 ,4,1,0.,24.0,0.,24.0
1979-03-02 05:27:45.370 ,5,1,0.,24.0,0.,24.0
1979-03-02 05:28:09.370 ,6,1,0.,24.0,0.,24.0
1979-03-02 05:28:33.370 ,7,1,0.,24.0,0.,24.0
1979-03-02 05:28:57.370 ,7,1,0.,24.0,0.,24.0
1979-03-02 05:29:21.370 ,6,1,0.,24.0,0.,24.0
1979-03-02 05:29:45.370 ,5,1,0.,24.0,0.,24.0
1979-03-02 05:30:09.370 ,4,1,0.,24.0,0.,24.0
1979-03-02 05:30:33.370 ,3,1,0.,24.0,0.,24.0
1979-03-02 05:30:57.370 ,2,1,0.,24.0,0.,24.0
1979-03-02 05:31:21.370 ,1,1,0.,24.0,0.,24.0
1979-03-02 05:31:45.370 ,0,1,0.,24.0,0.,24.0
1979-03-02 05:32:09.370 ,0,1,0.,24.0,0.,24.0
1979-03-02 05:32:33.370 ,1,1,0.,24.0,0.,24.0
1979-03-02 05:32:57.370 ,2,1,0.,24.0,0.,24.0
1979-03-02 05:33:21.370 ,3,1,0.,24.0,0.,24.0
1979-03-02 05:33:45.370 ,4,1,0.,24.0,0.,24.0
1979-03-02 05:34:09.370 ,5,1,0.,24.0,0.,24.0
1979-03-02 05:34:33.370 ,6,1,0.,24.0,0.,24.0
1979-03-02 05:34:57.370 ,7,1,0.,24.0,0.,24.0
1979-03-02 05:35:21.370 ,7,1,0.,24.0,0.,24.0
1979-03-02 05:35:45.370 ,6,1,0.,24.0,0.,24.0
1979-03-02 05:36:09.370 ,5,1,0.,24.0,0.,24.0
1979-03-02 05:36:33.370 ,4,1,0.,24.0,0.,24.0
1979-03-02 05:36:57.370 ,3,1,0.,24.0,0.,24.0
1979-03-02 05:37:21.370 ,2,1,0.,24.0,0.,24.0
1979-03-02 05:37:45.370 ,1,1,0.,24.0,0.,24.0
1979-03-02 05:38:09.370 ,0,1,0.,24.0,0.,24.0
1979-03-02 05:38:33.370 ,0,1,0.,24.0,0.,24.0
1979-03-02 05:38:57.370 ,1,1,1.,24.0,0.,24.0
1979-03-02 05:39:21.370 ,2,1,0.,24.0,0.,24.0
1979-03-02 05:39:45.370 ,3,1,0.,24.0,0.,24.0
1979-03-02 05:40:09.370 ,4,1,0.,24.0,0.,24.0
1979-03-02 05:40:33.370 ,5,1,0.,24.0,0.,24.0
1979-03-02 05:40:57.370 ,6,1,0.,24.0,0.,24.0
1979-03-02 05:41:21.370 ,7,1,0.,24.0,0.,24.0
1979-03-02 05:41:45.370 ,7,1,0.,24.0,0.,24.0
1979-03-02 05:42:09.370 ,6,1,0.,24.0,0.,24.0
1979-03-02 05:42:33.370 ,5,1,0.,24.0,0.,24.0
1979-03-02 05:42:57.370 ,4,1,0.,24.0,0.,24.0
1979-03-02 05:43:21.370 ,3,1,0.,24.0,0.,24.0
1979-03-02 05:43:45.370 ,2,1,0.,24.0,0.,24.0
